Notices

What's New in latest Release from April 7th, 2021:

- Updated Glossary, including Speed of Maximum Gust, and Total Hourly Precipitation

- Updated national and regional climate services offices contacts and prices information

- Addition of station inventory lists for 1981-2010, 1971-2000, and 1961-1990 Normals.

If you haven't already, please take our survey and provide feedback about our website: https://eccc.sondage-survey.ca/f/LanguageSelection.aspx?s=442ca660-fcf1-47c0-95a9-59707d6fd709

Hourly Data Report for December 24, 2019

CARBERRY CS
MANITOBA
Current Station Operator: ECCC - MSC

49°54'20.900" N
99°21'26.800" W
383.50 m
5010547
71170
WZE

Download Data

Hourly Data (December 2019)
Hourly Data Report for December 24, 2019
TIME
LST
Temp Definition
°C
Dew Point Definition
°C
Rel Hum Definition
%
Precip. Amount Definition
mm

Wind Dir Definition
10's deg

Wind Spd Definition
km/h
Visibility Definition
km
Stn Press Definition
kPa
Hmdx Definition


Wind Chill Definition


Weather Definition


00:00 -10.7 -12.7 85 0.0 20 9   96.66   -16 LegendNANA
01:00 -10.4 -12.3 86 0.0 23 5   96.62   -13 LegendNANA
02:00 -9.8 -11.9 85 0.0 25 11   96.60   -15 LegendNANA
03:00 -9.6 -11.5 86 0.0 25 9   96.60   -14 LegendNANA
04:00 -8.9 -10.7 87 0.0 27 11   96.61   -14 LegendNANA
05:00 -8.5 -10.4 86 0.0 26 14   96.65   -15 LegendNANA
06:00 -8.2 -9.9 87 0.0 27 12   96.67   -14 LegendNANA
07:00 -7.7 -9.2 89 0.0 26 11   96.66   -13 LegendNANA
08:00 -7.2 -8.8 89 0.0 27 12   96.65   -13 LegendNANA
09:00 -6.9 -8.4 89 0.0 28 10   96.73   -12 LegendNANA
10:00 -6.2 -7.9 88 0.0 28 9   96.78   -10 LegendNANA
11:00 -5.6 -7.5 86 0.0 29 6   96.80   -8 LegendNANA
12:00 -4.9 -7.5 82 0.0 31 5   96.79   -7 LegendNANA
13:00 -4.6 -7.6 80 0.0 33 6   96.77   -7 LegendNANA
14:00 -4.4 -7.4 79 0.0 32 7   96.72   -8 LegendNANA
15:00 -4.5 -7.5 79 0.0 35 7   96.76   -8 LegendNANA
16:00 -4.4 -7.4 80 0.0 34 3   96.83   -6 LegendNANA
17:00 -5.2 -7.5 83 0.0 4 11   96.79   -10 LegendNANA
18:00 -5.4 -7.5 85 0.0 4 12   96.79   -10 LegendNANA
19:00 -5.9 -7.8 87 0.0 2 16   96.82   -12 LegendNANA
20:00 -6.3 -7.9 88 0.0 2 11   96.89   -11 LegendNANA
21:00 -6.7 -8.0 91 0.0 4 8   96.90   -11 LegendNANA
22:00 -7.2 -8.4 92 0.0 6 10   96.88   -12 LegendNANA
23:00 -7.6 -8.6 93 0.0 5 10   96.88   -12 LegendNANA

Notes on Data Quality.

Legend

  • E = Estimated
  • M = Missing
  • NA = Not Available*
  • [empty] = Indicates an unobserved value
Date modified: